User: anonymous   Login
Location: Caltech
(34.1382°N, 118.1253°W)
Time: 09:58:38
(UTC-07:00)
Language:

Cosmos 2237 Rocket - Orbit

View from above orbital plane
View from above orbital plane
View from above satellite
View from above satellite

Ground track
Ground track

The orbit data is extracted from the following two-line orbital elements,

1 22566U 93016B   18116.17278018 -.00000536  00000-0 -25220-3 0  9991
2 22566  71.0041 129.9418 0009808   4.0098 356.1101 14.14953031295549
Epoch (UTC): 26 April 2018 04:08:48
Eccentricity: 0.0009808
inclination: 71.0041°
perigee height: 835 km
apogee height: 849 km
right ascension of ascending node: 129.9418°
argument of perigee: 4.0098°
revolutions per day: 14.14953031
mean anomaly at epoch: 356.1101°
orbit number at epoch: 29554

The dashed part of the orbit path shows where the satellite is in the earth's shadow,  

DLR